User: anonymous   Login
Location: Unspecified
(0.0000°N, 0.0000°E)
Time: 17:10:04
(UTC+02:00)
Language:

YAOGAN 3 - Orbit

View from above orbital plane
View from above orbital plane
View from above satellite
View from above satellite

Ground track
Ground track

The orbit data is extracted from the following two-line orbital elements,

1 32289U 07055A   16274.15265985  .00000067  00000-0  15543-4 0  9997
2 32289  97.9911 270.8948 0001721  82.3096 277.8317 14.80739495480253
Epoch (UTC): 30 September 2016 03:39:49
Eccentricity: 0.0001721
inclination: 97.9911°
perigee height: 626 km
apogee height: 628 km
right ascension of ascending node: 270.8948°
argument of perigee: 82.3096°
revolutions per day: 14.80739495
mean anomaly at epoch: 277.8317°
orbit number at epoch: 48025

The dashed part of the orbit path shows where the satellite is in the earth's shadow,  

DLR